Regional Weather Roundup
Issued by NWS

Home | Current Version | Previous Version | Graphics & Text | Print | Product List | Glossary On
Versions: 1 2 3 4 5 6 7 8 9 10 11 12 13 14 15 16 17 18 19 20 21 22 23 24 25 26 27 28 29 30 31 32 33 34 35 36 37 38 39 40 41 42 43 44 45 46 47 48 49 50
000
ASUS43 KDTX 060901
RWRMI
MICHIGAN HOURLY REGIONAL WEATHER ROUNDUP
NATIONAL WEATHER SERVICE DETROIT/PONTIAC MI
500 AM EDT MON JUL 06 2015

NOTE: "FAIR" INDICATES FEW OR NO CLOUDS BELOW 12,000 FEET WITH NO
SIGNIFICANT WEATHER AND/OR OBSTRUCTION TO VISIBILITY.

MIZ047>049-052>055-059>063-066>070-074>076-081>083-061000-
SOUTHEAST LOWER MICHIGAN

CITY           SKY/WX    TMP DP  RH WIND       PRES   REMARKS
ADRIAN         CLEAR     57  56  96 CALM      30.08S FOG
ALMA           CLEAR     58  56  94 CALM      30.06F
ANN ARBOR      FOG       55  54  96 CALM      30.08R VSB 1/4
BAD AXE        CLEAR     57  53  85 CALM      30.09R
CARO           CLEAR     54  54  97 CALM      30.07S FOG
DETROIT CITY   CLEAR     62  57  83 CALM      30.08R
DETROIT        PTCLDY    61  58  90 CALM      30.08R FOG
FLINT          CLEAR     58  55  90 CALM      30.08R
GROSSE ILE     CLEAR     63  59  88 CALM      30.06S
HILLSDALE      CLEAR     60  59  99 CALM      30.09R FOG
HOWELL         CLEAR     58  57  96 SE5       30.08R FOG

CITY           SKY/WX    TMP DP  RH WIND       PRES   REMARKS
JACKSON        CLEAR     60  56  86 CALM      30.08R
LAMBERTVILLE     N/A     60  57  91 CALM      30.08R FOG
LANSING        CLEAR     62  55  77 S3        30.07S
LAPEER         FAIR      51  50  95 CALM      30.08S FOG
MASON          CLEAR     58  55  92 CALM      30.08S
MONROE         FOG       58  58  99 CALM      30.07R VSB 3/4
MT. CLEMENS    CLEAR     59  57  94 W2        30.06R
PONTIAC        CLEAR     58  56  93 CALM      30.07S
PORT HOPE        N/A     63  54  72 SW6       30.05R
PORT HURON     CLEAR     55  55 100 CALM      30.08S FOG
TRI CITIES     CLEAR     65  56  72 S6        30.06S
MIDLAND        FAIR      62  56  81 CALM      30.05F
TROY           CLEAR     63  58  84 CALM      30.10R
SAGINAW HB     CLEAR     61  54  77 S7        30.05F
$$
MIZ043>046-050>051-056>058-064>065-071>073-077>080-061000-
SOUTHWEST LOWER MICHIGAN

CITY           SKY/WX    TMP DP  RH WIND       PRES   REMARKS
BATTLE CREEK   CLEAR     64  59  83 SE3       30.07S
BENTON HARBOR  CLEAR     65  61  87 SE3       30.03F
BIG RAPIDS     CLEAR     57  55  91 CALM      30.04F FOG
COLDWATER      CLEAR     58  58  97 CALM      30.08R FOG
FREMONT        FAIR      60  59  94 CALM      30.03F
HOLLAND        CLEAR     64  60  87 CALM      30.04F
GRAND RAPIDS   CLEAR     62  59  90 S6        30.05F
IONIA          FAIR      60  58  94 S5        30.04F
KALAMAZOO      CLEAR     63  58  83 SE3       30.05F
LUDINGTON      PTCLDY    71  63  75 S7        29.99F
MARSHALL       CLEAR     58  56  92 CALM      30.07R
MOUNT PLEASANT CLEAR     64  58  81 CALM      30.05R
MUSKEGON       CLEAR     63  58  83 SE5       30.03F
SOUTH HAVEN    CLEAR     65  61  85 CALM      30.04S
$$
MIZ016>042-061000-
NORTHERN LOWER MICHIGAN

CITY           SKY/WX    TMP DP  RH WIND       PRES   REMARKS
ALPENA         CLEAR     61  58  90 S5        30.03S
BEAVER ISLAND  PTCLDY    68  58  70 SW12G18   29.95S
BELLAIRE       CLEAR     60  59  96 CALM      29.98F FOG
CADILLAC       CLEAR     61  58  92 S3        30.03F
CHARLEVOIX     PTCLDY    69  59  71 S7        30.00F
FRANKFORT      PTCLDY    75  56  51 S10G20    29.98F
GAYLORD        CLEAR     65  61  87 S8        30.02F
GRAYLING       FOG       54  54  98 CALM      30.04F VSB 1/2
HARBOR SPRINGS PTCLDY    67  60  80 SW6       29.97F
HOUGHTON LAKE  CLEAR     65  61  87 S8        30.06R
MANISTEE       PTCLDY    63  55  77 CALM      30.00F
OSCODA         CLEAR     62  60  96 SW3       30.03F
PELLSTON       PTCLDY    59  57  93 SE3       29.98S
ROGERS CITY    CLEAR     64  61  89 S7        30.01S
TRAVERSE CITY  CLEAR     65  58  78 CALM      29.96F
$$
MIZ007>008-015-061000-
EASTERN UPPER MICHIGAN

CITY           SKY/WX    TMP DP  RH WIND       PRES   REMARKS
KINROSS        PTCLDY    61  61 100 SE9       29.97S
MACKINAC ISLAN CLEAR     65  59  80 S8        29.97S
NEWBERRY       PTCLDY    63  58  85 SW14      29.93F
S. S. MARIE    CLEAR     59  56  89 E5        29.96F
$$
MIZ004>006-011>014-085-061000-
CENTRAL UPPER MICHIGAN

CITY           SKY/WX    TMP DP  RH WIND       PRES   REMARKS
MANISTIQUE     MOCLDY    58  56  92 S6        29.92F FOG
ESCANABA       CLOUDY    66  63  88 SW12      29.89F
MENOMINEE      MOCLDY    70  61  73 S8        29.89F
SAWYER-GWINN   CLOUDY    67  62  84 S10       29.88F
$$
MIZ001>003-009>011-084-061000-
WESTERN UPPER MICHIGAN

CITY           SKY/WX    TMP DP  RH WIND       PRES   REMARKS
IRON MOUNTAIN  CLOUDY    65  62  90 SE3       29.89S
HOUGHTON       LGT RAIN  68  66  93 S9        29.77F FOG
COPPER HARBOR    N/A     72  65  78 VRB5      29.76F
IRONWOOD       CLOUDY    68  66  94 NW8       29.79R
$$

ABBREVIATIONS USED IN REMARKS
   TC - TEMPERATURE IN CELSIUS
  WCI - WIND CHILL INDEX
   HX - HEAT INDEX
  VSB - VISIBILITY




USA.gov is the U.S. government's official web portal to all federal, state and local government web resources and services.